Change the Weather History Date:

Friday, May 17, 2013

  Actual Average (PAKU) Record (PAKU)
Temperature  
Mean Temperature 18 °F -  
Max Temperature 23 °F 25 °F 42 °F (1998)
Min Temperature 12 °F 16 °F 1 °F (2000)
Degree Days  
Heating Degree Days 47    
Moisture  
Dew Point 12 °F    
Average Humidity 86    
Maximum Humidity 96    
Minimum Humidity 74    
Precipitation  
Precipitation 0.00 in - - ()
Sea Level Pressure  
Sea Level Pressure 29.66 in    
Wind  
Wind Speed 13 mph (West)    
Max Wind Speed 21 mph    
Max Gust Speed -    
Visibility 4 miles    
Events Fog , Snow    
Averages and records for this station are not official NWS values.
T = Trace of Precipitation, MM = Missing Value Source: NWS Daily Summary

Daily Weather History Graph

Daily Weather History Graph

Search for Another Location

Airport or City:

Trip Planner

Search our weather history database for the weather conditions in past years. The results will help you decide how hot, cold, wet, or windy it might be!

Date:

Astronomy

May. 17, 2013 Rise Set
Actual Time 2:32 AM AKDT 1:27 AM AKDT
Civil Twilight Sun does not rise Sun does not rise
Nautical Twilight Sun does not rise Sun does not rise
Astronomical Twilight Sun does not rise Sun does not rise
Moon 12:14 PM AKDT (5/17) 3:39 AM AKDT (5/17)
Length of Visible Light 24h 00m
Length of Day
22h 55m
Waxing Crescent, 46% of the Moon is Illuminated
May 17
Waxing Crescent
May 17
First Quarter
May 24
Full
May 31
Last Quarter
Jun 8
New

Hourly Weather History & Observations

Time (AKDT) Temp. Windchill Dew Point Humidity Pressure Visibility Wind Dir Wind Speed Gust Speed Precip Events Conditions
12:53 AM 24.1 °F 9.4 °F 19.0 °F 81% 29.49 in 10.0 mi West 20.7 mph - N/A   Overcast
1:53 AM 21.0 °F 6.2 °F 18.0 °F 88% 29.50 in 10.0 mi West 18.4 mph - N/A   Overcast
2:53 AM 18.0 °F 4.2 °F 17.1 °F 96% 29.52 in 10.0 mi West 13.8 mph - N/A   Scattered Clouds
3:53 AM 18.0 °F 4.2 °F 16.0 °F 92% 29.54 in 10.0 mi West 13.8 mph - N/A   Overcast
4:53 AM 17.1 °F 3.6 °F 15.1 °F 92% 29.55 in 10.0 mi West 12.7 mph - N/A   Overcast
5:39 AM 17.6 °F 3.7 °F 15.8 °F 93% 29.55 in 2.0 mi West 13.8 mph - 0.00 in Snow Light Snow
5:46 AM 17.6 °F 3.7 °F 15.8 °F 93% 29.55 in 1.8 mi West 13.8 mph - 0.00 in Snow Light Snow
5:50 AM 17.6 °F 3.7 °F 15.8 °F 93% 29.55 in 3.0 mi West 13.8 mph - 0.00 in Snow Light Snow
5:53 AM 18.0 °F 4.8 °F 16.0 °F 92% 29.56 in 3.0 mi West 12.7 mph - 0.00 in Snow Light Snow
6:13 AM 17.6 °F 4.3 °F 15.8 °F 93% 29.57 in 2.5 mi WNW 12.7 mph - 0.00 in Snow Light Snow
6:17 AM 17.6 °F 5.0 °F 15.8 °F 93% 29.57 in 0.8 mi WNW 11.5 mph - 0.00 in Snow Light Snow
6:29 AM 17.6 °F 5.0 °F 15.8 °F 93% 29.57 in 0.2 mi WNW 11.5 mph - 0.00 in Fog , Snow Heavy Snow
6:47 AM 17.6 °F 5.0 °F 15.8 °F 93% 29.58 in 1.0 mi West 11.5 mph - 0.00 in Snow Light Snow
6:53 AM 17.1 °F 4.3 °F 15.1 °F 92% 29.58 in 1.5 mi West 11.5 mph - 0.00 in Snow Light Snow
7:08 AM 17.6 °F 5.7 °F 15.8 °F 93% 29.59 in 0.8 mi West 10.4 mph - 0.00 in Snow Light Snow
7:43 AM 15.8 °F 5.1 °F 14.0 °F 93% 29.60 in 1.0 mi West 8.1 mph - 0.00 in Snow Light Snow
7:53 AM 16.0 °F 4.4 °F 14.0 °F 92% 29.60 in 2.0 mi NW 9.2 mph - 0.00 in Snow Light Snow
8:02 AM 15.8 °F 7.2 °F 12.2 °F 86% 29.60 in 3.0 mi WNW 5.8 mph - 0.00 in Snow Light Snow
8:10 AM 15.8 °F 7.2 °F 12.2 °F 86% 29.60 in 2.5 mi WNW 5.8 mph - 0.00 in Snow Light Snow
8:18 AM 15.8 °F 6.1 °F 12.2 °F 86% 29.61 in 3.0 mi WNW 6.9 mph - 0.00 in Snow Light Snow
8:28 AM 15.8 °F 6.1 °F 12.2 °F 86% 29.61 in 1.8 mi West 6.9 mph - 0.00 in Snow Light Snow
8:33 AM 15.8 °F 4.2 °F 12.2 °F 86% 29.61 in 0.8 mi West 9.2 mph - 0.00 in Snow Light Snow
8:53 AM 15.1 °F 0.5 °F 12.0 °F 88% 29.62 in 1.0 mi West 13.8 mph - 0.00 in Snow Light Snow
9:40 AM 15.8 °F 2.1 °F 12.2 °F 86% 29.63 in 2.5 mi West 12.7 mph - 0.00 in Snow Light Snow
9:53 AM 15.1 °F 1.1 °F 12.0 °F 88% 29.63 in 3.0 mi West 12.7 mph - 0.00 in Snow Light Snow
10:04 AM 15.8 °F 0.3 °F 12.2 °F 86% 29.63 in 1.8 mi West 16.1 mph - 0.00 in Snow Light Snow
10:17 AM 15.8 °F 0.9 °F 10.4 °F 79% 29.64 in 2.0 mi West 15.0 mph - 0.00 in Snow Light Snow
10:25 AM 15.8 °F 0.9 °F 10.4 °F 79% 29.64 in 3.0 mi West 15.0 mph - 0.00 in Snow Light Snow
10:34 AM 15.8 °F 0.3 °F 10.4 °F 79% 29.64 in 1.8 mi West 16.1 mph - 0.00 in Snow Light Snow
10:53 AM 15.1 °F -0.1 °F 12.0 °F 88% 29.65 in 1.2 mi West 15.0 mph - 0.00 in Snow Light Snow
11:11 AM 14.0 °F -0.8 °F 10.4 °F 86% 29.66 in 3.0 mi West 13.8 mph - 0.00 in Snow Light Snow
11:16 AM 14.0 °F -1.4 °F 10.4 °F 86% 29.66 in 2.5 mi West 15.0 mph - 0.00 in Snow Light Snow
11:26 AM 14.0 °F -0.2 °F 10.4 °F 86% 29.66 in 1.2 mi West 12.7 mph - 0.00 in Snow Light Snow
11:38 AM 14.0 °F -0.8 °F 10.4 °F 86% 29.67 in 1.5 mi West 13.8 mph - 0.00 in Snow Light Snow
11:48 AM 14.0 °F 0.5 °F 10.4 °F 86% 29.67 in 2.5 mi West 11.5 mph - 0.00 in Snow Light Snow
11:53 AM 14.0 °F -1.4 °F 10.9 °F 88% 29.68 in 3.0 mi West 15.0 mph - 0.00 in Snow Light Snow
12:11 PM 14.0 °F -0.8 °F 10.4 °F 86% 29.68 in 4.0 mi West 13.8 mph - 0.00 in Snow Light Snow
12:53 PM 15.1 °F 1.1 °F 10.9 °F 84% 29.69 in 6.0 mi West 12.7 mph - 0.00 in Snow Light Snow
1:53 PM 15.1 °F 1.8 °F 10.9 °F 84% 29.71 in 1.5 mi West 11.5 mph - 0.00 in Snow Light Snow
2:19 PM 15.8 °F 2.7 °F 10.4 °F 79% 29.72 in 2.5 mi West 11.5 mph - 0.00 in Snow Light Snow
2:27 PM 15.8 °F 3.4 °F 10.4 °F 79% 29.72 in 4.0 mi West 10.4 mph - 0.00 in Snow Light Snow
2:53 PM 16.0 °F 3.6 °F 12.0 °F 84% 29.74 in 4.0 mi West 10.4 mph - 0.00 in Snow Light Snow
3:18 PM 15.8 °F 3.4 °F 12.2 °F 86% 29.74 in 1.8 mi West 10.4 mph - 0.00 in Snow Light Snow
3:27 PM 15.8 °F 2.1 °F 12.2 °F 86% 29.75 in 3.0 mi West 12.7 mph - 0.00 in Snow Light Snow
3:53 PM 16.0 °F 2.9 °F 12.0 °F 84% 29.75 in 6.0 mi West 11.5 mph - 0.00 in Snow Light Snow
4:22 PM 15.8 °F 2.1 °F 10.4 °F 79% 29.76 in 2.0 mi West 12.7 mph - 0.00 in Snow Light Snow
4:41 PM 15.8 °F 2.1 °F 10.4 °F 79% 29.77 in 8.0 mi West 12.7 mph - 0.00 in Snow Light Snow
4:53 PM 15.1 °F 1.1 °F 10.9 °F 84% 29.77 in 10.0 mi West 12.7 mph - 0.00 in   Overcast
5:53 PM 15.1 °F 1.8 °F 9.0 °F 77% 29.79 in 10.0 mi West 11.5 mph - N/A   Overcast
6:53 PM 15.1 °F 4.2 °F 8.1 °F 74% 29.80 in 10.0 mi West 8.1 mph - 0.00 in   Overcast
7:53 PM 15.1 °F 3.3 °F 8.1 °F 74% 29.81 in 10.0 mi West 9.2 mph - 0.00 in   Overcast
8:53 PM 14.0 °F 2.9 °F 9.0 °F 80% 29.82 in 10.0 mi WSW 8.1 mph - 0.00 in   Overcast
9:53 PM 12.9 °F 1.6 °F 8.1 °F 81% 29.84 in 10.0 mi West 8.1 mph - N/A   Overcast
10:53 PM 12.9 °F 2.6 °F 9.0 °F 84% 29.85 in 8.0 mi WSW 6.9 mph - 0.00 in   Overcast
11:53 PM 12.0 °F 1.5 °F 9.0 °F 88% 29.86 in 5.0 mi WSW 6.9 mph - 0.00 in Snow Light Snow